Regional Weather Roundup
Issued by NWS

Current Version | Previous Version | Text Only | Print | Product List | Glossary On
Versions: 1 2 3 4 5 6 7 8 9 10 11 12 13 14 15 16 17 18 19 20 21 22 23 24 25 26 27
000
ASUS45 KTFX 040610
RWRMT
Montana Regional Weather Roundup
National Weather Service Great Falls MT
1200 AM MDT TUE OCT 04 2022

NOTE: "FAIR" indicates few or no clouds below 12,000 feet with no
significant weather and/or obstructions to visibility.

MTZ001>007-043-040700-
West of the divide

CITY           SKY/WX    TMP DP  RH WIND       PRES   REMARKS
Kalispell      CLEAR     45  44  97 CALM      30.16S
Missoula       CLEAR     53  44  71 CALM      30.20R
Butte          CLEAR     43  40  89 E5        30.30S
Anaconda         N/A     46  41  81 CALM      30.27
Deer Lodge       N/A     45  43  93 CALM      30.29
Hamilton       FAIR      46  43  87 SE5       30.21S
Mullan Pass    CLEAR     55  37  50 NW3       30.28F
$$

MTZ008-052>055-040700-
Southwest Montana

CITY           SKY/WX    TMP DP  RH WIND       PRES   REMARKS
Bozeman        MOCLDY    48  44  86 E6        30.26S
Dillon         CLEAR     42  40  92 S5        30.27S
Ennis          CLOUDY    45  43  93 CALM      30.33S
Three Forks      N/A     45  37  76 CALM      30.21S
Twin Bridges   FAIR      46  43  87 E5        30.28S
W Yellowstone  CLEAR     32  32 100 CALM      30.33S
$$

MTZ009-010-012-014-046-048-049-054-040700-
East Slopes and Central Montana

CITY           SKY/WX    TMP DP  RH WIND       PRES   REMARKS
Cut Bank       CLEAR     51  48  89 SE7       30.16F
Great Falls    CLEAR     50  46  86 SE3       30.17F
Helena         CLEAR     53  47  79 CALM      30.21S
Malmstrom AFB  CLEAR     49  47  93 S7        30.16F
Augusta        FAIR      50  50  99 CALM      30.17F
Bowmans Corner FAIR      53  48  85 SW8       30.14F
Choteau          N/A     52  50  93 S6        30.17
Fairfield      FAIR      50  47  87 CALM      30.14F
Power          FAIR      48  46  90 E5        30.15F
Raynesford     FAIR      47  44  89 CALM      30.18F
Ulm              N/A     54  49  82 CALM      30.14S
$$

MTZ011-013-016-021-045-047-050-051-040700-
North Central Montana

CITY           SKY/WX    TMP DP  RH WIND       PRES   REMARKS
Havre          CLEAR     47  43  86 SW6       30.15S
Lewistown      PTCLDY    43  40  89 CALM      30.21S
Chinook          N/A     46  46 100 CALM      30.17
Denton         FAIR      47  44  87 S7        30.19S
Geyser         FAIR      48  44  86 SW9       30.19S
Grass Range    FAIR      46  45  95 W6        30.15S
N Bar Ranch    FAIR      41  39  93 NW7       30.23F
Roy            FAIR      54  44  70 W5        30.15F
Stanford       FAIR     N/A N/A N/A CALM      30.21S
Winifred       FAIR      51  44  75 S5        30.17S
$$

MTZ017>020-022>027-061-062-040700-
Northeast Montana

CITY           SKY/WX    TMP DP  RH WIND       PRES   REMARKS
Glasgow        CLEAR     54  51  90 CALM      30.13S
Culbertson       N/A     54  54 100 CALM      30.10F FOG
Glendive       CLOUDY    55  55 100 S3        30.16S
Jordan           N/A     53  51  93 CALM      30.15S
Malta          MOCLDY    50  50 100 NW3       30.13S
Plentywood     FOG       50  50 100 CALM      30.11S VSB<1/4
Sidney         CLOUDY    54  54 100 SW3       30.13F FOG
Wolf Point     CLOUDY    56  54  93 W6        30.13S
$$

MTZ028>42-056>058-040700-
Southcentral and southeast Montana

CITY           SKY/WX    TMP DP  RH WIND       PRES   REMARKS
Baker          LGT RAIN  52  52 100 W5        30.17F
Big Timber     CLEAR     48  43  81 W9        30.24F
Billings       PTCLDY    53  49  86 S5        30.21F
Forsyth          N/A     54  54 100 W5        30.18
Hardin           N/A    N/A N/A N/A MISG        N/A
Harlowton      FAIR      45  43  92 NW7       30.21S
Laurel           N/A     50  48  93 N5        30.22
Livingston     CLEAR     49  43  80 NW13      30.24S
Miles City     PTCLDY    52  51  97 SW3       30.17F
$$

Regional Reports...Dakotas/MN

CITY           SKY/WX    TMP DP  RH WIND       PRES   REMARKS
Williston      MOCLDY    54  52  93 W7        30.12F FOG
Minot          CLEAR     54  50  86 SW7       30.08S
Dickinson      CLEAR     48  46  93 SW3       30.13S
Beach          MOCLDY    54  54 100 W6        30.16F
Bowman         CLOUDY    50  50 100 W3        30.16F
Crosby         CLOUDY    55  55 100 CALM      30.11S
Glen Ullin     FAIR      43  41  93 CALM      30.12F FOG
Hettinger      PTCLDY    43  42  97 W3        30.16S FOG
Tioga          FOG       50  50 100 W5        30.13S VSB 1/2
Watford City   CLOUDY    55  55 100 SW3       30.13F
Bismarck       MOCLDY    56  52  86 NW6       30.12S
Grand Forks    MOCLDY    61  53  75 S6        30.04F
Fargo          CLOUDY    63  49  60 SE6       30.07F
Buffalo SD       N/A     53  50  89 W5        30.15S
Rapid City     LGT RAIN  53  49  86 N8        30.18R
Intl Falls     LGT RAIN  59  53  80 VRB5      30.11S
Duluth         CLOUDY    60  51  72 SW8       30.17S
Minneapolis    MOCLDY    63  45  51 S9        30.18F
$$

Regional Reports...WY/CO/ID/WA/OR

CITY           SKY/WX    TMP DP  RH WIND       PRES   REMARKS
Buffalo WY     MOCLDY    47  44  90 SW7       30.25F
Cody           CLEAR     46  42  86 CALM      30.28S
Gillette       CLOUDY    47  45  93 W5        30.23S
Powell         FAIR      48  39  71 SW5       30.25S
Sheridan       MOCLDY    49  46  90 SW5       30.23F
Yellowstone La   N/A     30  30 100 CALM      30.39S
Boise          CLEAR     59  41  51 SE6       30.14S
Couer d`Alene  CLEAR     56  50  80 SE6       30.14S
Idaho Falls    PTCLDY    50  43  77 CALM      30.25S
Salmon         CLEAR     44  38  79 CALM      30.25R
Spokane        CLEAR     61  48  62 SW5       30.12F
Seattle        CLEAR     61  51  70 CALM      30.06R
Portland       CLEAR     64  55  72 NW5       30.05R
$$

Other Reports

CITY           SKY/WX    TMP DP  RH WIND       PRES   REMARKS
Atlanta        PTCLDY    63  54  72 SE7       30.12S
Anchorage      CLOUDY    49  40  71 SE6       29.97R
Boston         CLOUDY    54  42  64 NE17      30.20F
Chicago        PTCLDY    49  43  80 CALM      30.27F
Fairbanks      FAIR      41  34  76 NE6       29.96R
Houston        MOCLDY    69  55  60 N6        30.07S
Las Vegas NV   PTCLDY    81  49  32 NW5       29.99R
Phoenix AZ     PTCLDY    78  52  40 NW6       29.91R
Salt Lake City CLEAR     60  40  47 CALM      30.17S
San Diego      CLOUDY    68  62  81 VRB3      29.97S
San Francisco  PTCLDY    60  55  83 W16       30.04S
Washington Dul LGT RAIN  49  45  86 N9G18     30.13F
$$

Regional Reports...Alberta

CITY           SKY/WX    TMP DP  RH WIND       PRES   REMARKS
Calgary        CLEAR     54  41  62 CALM      30.08F
Cardston         N/A     55  43  62 SW8         N/A
Crowsnest Pass   N/A     39  37  93 MISG        N/A
Del Bonita       N/A     52  48  87 S9          N/A
Edmonton       PTCLDY    48  39  71 CALM      30.05F
Fort McMurray  CLOUDY    48  36  61 E6        30.02F
High Level     CLEAR     36  34  93 N8        29.97R WCI  29
Lethbridge     CLEAR     57  46  67 S16       30.08S
Medicine Hat   CLEAR     52  46  82 SW3       30.10S
Milk River       N/A     50  46  87 S7          N/A
Onefour          N/A     52  45  76 S1          N/A
Pincher Creek  CLEAR     57  45  62 W14       30.13S
Raymond          N/A     61  46  59 S12         N/A
Waterton Gate    N/A     55  43  62 S10         N/A
Fort Smith NWT PTCLDY    41  32  70 CALM      29.94S
$$

Regional Reports...Saskatchewan

CITY           SKY/WX    TMP DP  RH WIND       PRES   REMARKS
Assiniboia       N/A     45  41  87 W2          N/A
Coronach         N/A     45  43  93 NW2         N/A
Cypress Hills    N/A     48  43  81 SW3         N/A
Estevan        FOG      N/A N/A N/A NW3       30.09  VSB 3/8
Moose Jaw        N/A     46  41  81 SE2         N/A
Prince Albert  MOCLDY    46  41  81 NE5       30.13F
Regina         PTCLDY    50  46  87 E2        30.11S
Rockglen         N/A     54  46  76 NW3         N/A
Saskatoon      PTCLDY    46  37  71 NE7       30.10S
Swift Current  CLOUDY    50  45  81 SW10      30.11S
Val Marie        N/A     46  43  87 W6          N/A
$$



USA.gov is the U.S. government's official web portal to all federal, state and local government web resources and services.